Regional Weather Roundup
Issued by NWS

Home | Current Version | Previous Version | Text Only | Print | Product List | Glossary Off
Versions: 1 2 3 4 5 6 7 8 9 10 11 12 13 14 15 16 17 18 19 20 21 22 23 24 25 26 27 28 29 30 31 32 33 34 35 36 37 38 39 40 41 42 43 44 45 46 47 48 49 50

000
ASUS43 KFSD 171802
RWRSD

WEATHER ROUNDUP FOR SOUTH DAKOTA
NATIONAL WEATHER SERVICE SIOUX FALLS SD
100 PM CDT THU AUG 17 2017

NOTE: "FAIR" INDICATES FEW OR NO CLOUDS BELOW 12,000 FEET WITH NO
SIGNIFICANT WEATHER AND/OR OBSTRUCTIONS TO VISIBILITY.


SDZ001>005-009-010-012>017-171900-
NORTHWEST AND NORTH CENTRAL SOUTH DAKOTA

CITY           SKY/WX    TMP DP  RH WIND       PRES   REMARKS
BUFFALO          N/A     83  48  29 N8        29.86S
FAITH            N/A     85  50  29 S13G22    29.88F
MOBRIDGE       SUNNY     80  54  40 SE12      29.87F
$$

SDZ012>016-024>037-041>051-057-063-072>074-171900-
SOUTHWEST AND SOUTH CENTRAL SOUTH DAKOTA

CITY           SKY/WX    TMP DP  RH WIND       PRES   REMARKS
RAPID CTY ARPT SUNNY     86  49  27 N3        29.92F
PIERRE         SUNNY     79  50  36 E12       29.89F
CUSTER         SUNNY     76  41  28 VRB7      30.08F
PHILIP         SUNNY     90  52  27 S10       29.87F
PINE RIDGE     SUNNY     85  59  41 S8        29.97F
SPEARFISH      LGT RAIN  84  43  23 NE8G16    29.97S
WINNER         FAIR      85  56  37 SE5       29.94F
$$

SDZ004>011-016>023-039-040-171900-
NORTHEAST SOUTH DAKOTA

CITY           SKY/WX    TMP DP  RH WIND       PRES   REMARKS
ABERDEEN       SUNNY     78  56  46 N9        29.90F
WATERTOWN      SUNNY     74  61  63 NW16      29.89R
BROOKINGS      SUNNY     72  61  68 NW15      29.89S
SISSETON         N/A     73  63  70 NW14      29.85R
$$

SDZ017-020-022-023-036>040-048>070-171900-
SOUTHEAST SOUTH DAKOTA

CITY           SKY/WX    TMP DP  RH WIND       PRES   REMARKS
SIOUX FALLS    MOSUNNY   77  62  59 NW16G24   29.89S
HURON          SUNNY     77  60  55 NW10      29.91F
CHAMBERLAIN    SUNNY     78  56  46 CALM      29.94F
MITCHELL       SUNNY     77  61  57 NW13      29.93F
YANKTON        SUNNY     76  60  57 NW16      29.93F
$$

ABBREVIATIONS USED IN REMARKS
   TC - TEMPERATURE IN CELSIUS
  WCI - WIND CHILL INDEX
   HX - HEAT INDEX
  VSB - VISIBILITY





USA.gov is the U.S. government's official web portal to all federal, state and local government web resources and services.